M5DJC Weather Reports


time (UTC)temp
F
wind
direction
speed
knots
gust
knots
rain 1hr
in
rain 24hr
in
rain mn
in
humidity
%
barometer
mb
20260508070032 50 127 0.9 4.3 0.00 0.00 0.00 88 1017.6
20260508064538 50 109 0.0 6.1 0.00 0.00 0.00 90 1017.5
20260508063034 48 133 1.7 4.3 0.00 0.00 0.00 91 1017.4
20260508061536 48 0 0.0 2.6 0.00 0.00 0.00 92 1017.3
20260508060034 48 0 0.0 3.5 0.00 0.00 0.00 92 1017.1
20260508054535 47 123 0.9 4.3 0.00 0.00 0.00 92 1017.1
20260508053035 47 122 2.6 6.1 0.00 0.00 0.00 92 1016.9
20260508051533 47 74 0.0 7.0 0.00 0.00 0.00 92 1017.0
20260508050032 47 104 1.7 3.5 0.00 0.00 0.00 92 1016.6
20260508044534 47 112 0.0 3.5 0.00 0.00 0.00 91 1016.7
20260508043032 47 114 1.7 6.1 0.00 0.00 0.00 91 1016.6
20260508041530 47 131 2.6 7.8 0.00 0.00 0.00 91 1016.6
20260508040037 47 114 0.9 7.0 0.00 0.00 0.00 91 1016.6
20260508034534 47 116 3.5 7.0 0.00 0.00 0.00 91 1016.5
20260508033036 47 132 2.6 6.1 0.00 0.00 0.00 90 1016.5
20260508031533 47 120 2.6 7.0 0.00 0.00 0.00 90 1016.6
20260508030033 47 119 2.6 7.0 0.00 0.00 0.00 90 1016.4
20260508024542 47 121 2.6 6.1 0.00 0.00 0.00 89 1016.5
20260508023033 47 121 2.6 8.7 0.00 0.00 0.00 89 1016.4
20260508021535 47 170 2.6 7.0 0.00 0.00 0.00 89 1016.2
20260508020034 47 121 2.6 6.1 0.00 0.00 0.00 88 1016.2
20260508014545 48 133 2.6 7.8 0.00 0.00 0.00 88 1016.1
20260508013042 48 126 2.6 7.0 0.00 0.00 0.00 88 1016.2
20260508011535 48 123 1.7 7.0 0.00 0.00 0.00 87 1016.3
20260508010033 48 147 2.6 7.8 0.00 0.00 0.00 87 1016.3
20260508004533 48 125 3.5 7.8 0.00 0.00 0.00 86 1016.4
20260508003053 48 125 3.5 6.1 0.00 0.00 0.00 85 1016.4
20260508001533 48 116 3.5 6.1 0.00 0.00 0.00 85 1016.6
20260508000037 48 143 2.6 6.1 0.00 0.00 0.00 84 1016.7
20260507234530 48 140 2.6 9.6 0.00 0.00 0.00 84 1016.8
20260507233036 49 143 3.5 7.0 0.00 0.00 0.00 83 1016.7
20260507231535 49 155 3.5 7.8 0.00 0.00 0.00 82 1016.7
20260507230038 49 125 3.5 11.3 0.00 0.00 0.00 82 1016.7
20260507224541 49 156 2.6 6.1 0.00 0.00 0.00 81 1017.0
20260507223033 49 115 4.3 8.7 0.00 0.00 0.00 81 1017.0
20260507221532 49 122 2.6 7.0 0.00 0.00 0.00 81 1017.0
20260507220032 50 135 2.6 8.7 0.00 0.00 0.00 80 1016.9
20260507214534 50 121 2.6 6.1 0.00 0.00 0.00 79 1016.9
20260507213032 50 129 4.3 9.6 0.00 0.00 0.00 78 1016.8
20260507211541 50 128 4.3 8.7 0.00 0.00 0.00 78 1016.9
20260507210035 51 117 4.3 12.2 0.00 0.00 0.00 76 1016.7
20260507204531 51 121 4.3 10.4 0.00 0.00 0.00 75 1016.6
20260507203032 52 127 4.3 7.8 0.00 0.00 0.00 73 1016.5
20260507201533 52 130 2.6 5.2 0.00 0.00 0.00 72 1016.4
20260507200031 53 133 3.5 6.1 0.00 0.00 0.00 71 1016.3
20260507194537 53 136 2.6 6.1 0.00 0.00 0.00 70 1016.2
20260507193035 53 141 2.6 6.1 0.00 0.00 0.00 70 1016.1
20260507191530 53 129 3.5 8.7 0.00 0.00 0.00 68 1016.0
20260507190035 54 131 3.5 7.0 0.00 0.00 0.00 67 1016.0
20260507184534 54 115 2.6 8.7 0.00 0.00 0.00 67 1016.1
20260507183032 55 116 3.5 9.6 0.00 0.00 0.00 65 1015.8
20260507181531 56 138 6.1 12.2 0.00 0.00 0.00 63 1015.8
20260507180040 56 79 4.3 10.4 0.00 0.00 0.00 63 1015.6
20260507174535 56 133 3.5 8.7 0.00 0.00 0.00 62 1015.7
20260507173034 57 121 5.2 11.3 0.00 0.00 0.00 59 1015.6
20260507171532 58 121 4.3 9.6 0.00 0.00 0.00 60 1015.7
20260507170034 58 123 5.2 10.4 0.00 0.00 0.00 59 1015.8
20260507164531 59 114 4.3 10.4 0.00 0.00 0.00 58 1015.8
20260507163032 58 148 2.6 7.0 0.00 0.00 0.00 59 1015.9
20260507161534 58 136 4.3 8.7 0.00 0.00 0.00 58 1015.7
20260507160037 59 132 2.6 5.2 0.00 0.00 0.00 56 1015.8
20260507154532 59 133 1.7 4.3 0.00 0.00 0.00 57 1015.9
20260507153035 59 114 0.9 7.0 0.00 0.00 0.00 55 1016.1
20260507151533 58 137 2.6 7.0 0.00 0.00 0.00 58 1016.2
20260507150030 58 119 1.7 7.8 0.00 0.00 0.00 56 1016.2
20260507144536 57 127 1.7 6.1 0.00 0.00 0.00 59 1016.2
20260507143035 57 85 2.6 7.8 0.00 0.00 0.00 61 1016.2
20260507141536 57 129 1.7 5.2 0.00 0.00 0.00 59 1016.2
20260507140033 57 0 0.9 6.1 0.00 0.00 0.00 61 1016.4
20260507134532 57 131 2.6 6.1 0.00 0.00 0.00 60 1016.6
20260507133033 57 132 1.7 6.1 0.00 0.00 0.00 58 1016.5
20260507131539 58 133 1.7 6.1 0.00 0.00 0.00 60 1016.5
20260507130033 58 123 2.6 7.0 0.00 0.00 0.00 59 1016.5
20260507124535 60 137 3.5 8.7 0.00 0.00 0.00 56 1016.5
20260507123033 59 113 3.5 7.8 0.00 0.00 0.00 59 1016.4
20260507121531 61 0 1.7 11.3 0.00 0.00 0.00 59 1016.4
20260507120032 59 149 1.7 9.6 0.00 0.00 0.00 62 1016.4
20260507114532 56 129 3.5 8.7 0.00 0.00 0.00 62 1016.8
20260507113036 59 118 4.3 8.7 0.00 0.00 0.00 59 1016.9
20260507111538 58 95 4.3 8.7 0.00 0.00 0.00 64 1016.9
20260507110033 58 151 4.3 8.7 0.00 0.00 0.00 65 1017.0
20260507104535 58 139 1.7 8.7 0.00 0.00 0.00 67 1017.0
20260507103030 56 114 2.6 9.6 0.00 0.00 0.00 66 1017.0
20260507101552 55 206 1.7 7.0 0.00 0.00 0.00 70 1017.1
20260507100035 55 106 1.7 7.8 0.00 0.00 0.00 67 1017.2
20260507094532 53 239 1.7 5.2 0.00 0.00 0.00 76 1017.3
20260507093034 52 133 0.0 3.5 0.00 0.00 0.00 74 1017.2
20260507091550 53 0 0.0 8.7 0.00 0.00 0.00 75 1017.2
20260507090033 53 131 2.6 8.7 0.00 0.00 0.00 76 1017.1
20260507084530 53 7 0.9 5.2 0.00 0.00 0.00 74 1017.1
20260507083032 53 167 2.6 8.7 0.00 0.00 0.00 74 1017.0
20260507081548 52 95 0.0 8.7 0.00 0.00 0.00 77 1017.0
20260507080033 52 124 1.7 7.8 0.00 0.00 0.00 76 1016.8
20260507074537 51 176 1.7 7.0 0.00 0.00 0.00 78 1017.0
20260507073036 50 120 2.6 7.8 0.00 0.00 0.00 81 1016.9
20260507071530 49 118 3.5 8.7 0.00 0.00 0.00 83 1016.8